Weather in Tabolo

Russia / Tula Oblast     53°51′01″N   38°46′21″E
temp.,
°C
wind,
m/s
gust,
m/s
humid.,
%
clouds,
%
prec.,
mm/h
press.,
hPa
HPBL,
m
11 april, sun
sun1100:00+4sw22550 0.0 102710
03:00+3w22610 0.0 102810
06:00+2w22660 0.0 102910
09:00+7nnw125395 0.0 1030179
12:00+10nne22412 0.0 1030828
15:00+13nne333714 0.0 10301094
18:00+12ne46465 0.0 1030394
21:00+7ene376370 0.0 1031117
12 april, mon
mon1200:00+5ene41071100 0.0 1031194
03:00+4ne41269100 0.0 1032264
06:00+4ne51264100 0.0 1031332
09:00+6ene51178100 0.1 1030392
12:00+10e6874100 0.1 1029540
15:00+13e6869100 0.1 1027591
18:00+13e4874100 0.0 1026316
21:00+10e41186100 0.0 1026195
13 april, tue
tue1300:00+10se4137832 0.0 1025204
03:00+8se412799 0.0 1026165
06:00+7se4117934 0.0 1026156
09:00+12sse5105798 0.0 1025299
12:00+17sse6843100 0.0 1025699
15:00+19sse683517 0.0 10241551
18:00+17se364990 0.0 1023146
21:00+13se475814 0.0 102394
14 april, wed
wed1400:00+11se413665 0.0 1023235
03:00+9sse4117291 0.0 1023196
06:00+8sse377468 0.0 1023102
09:00+12se4958100 0.0 1022274
12:00+18se583685 0.0 1021865
15:00+19sse6826100 0.0 10202037
18:00+17se363852 0.0 1019135
21:00+13se355279 0.0 101968
15 april, thu
thu1500:00+11se335996 0.0 101820
03:00+9ese3363100 0.0 101826
06:00+8ese3369100 0.0 101823
09:00+13ese2457100 0.0 1017201
12:00+17e4543100 0.0 1015775
15:00+19e5535100 0.0 10132184
18:00+17ene4842100 0.0 1012269
21:00+12se51175100 0.9 1013473